Location: Clermont
(50.2608°N, 4.3172°E)
Time: 06:02:28
(UTC+00:00)

FALCON 9 DEB - Pass Details

Date: 13 August 2020
Orbit: 427 x 441 km, 53.0° (Epoch: 23 September)

Event Time Altitude Azimuth Distance (km) Brightness Sun altitude
Rises 22:26:35 0° 283° (WNW) 2,434 7.4 -23.0°
Reaches altitude 10° 22:28:44 10° 288° (WNW) 1,563 6.4 -23.2°
Enters shadow 22:31:49 52° 338° (NNW) 561 3.9 -23.3°
